カタログに戻る

STARLINK-5013

運用中通信VLEO
NORAD 55492·PAYLOAD·🇺🇸 United States

打ち上げ Feb 2, 2023 から Cape Canaveral Space Force Station

Loading…

次のパス (今後24時間)

TLE

最新Source: CelesTrak SupGP

元期: Sep 14, 2026, 21:36 UTC

1 55492C 23015AV  26257.90048611 -.00030845  00000+0 -11172-2 0  2579
2 55492  43.0038 351.2215 0001852 281.8425  13.3632 15.27592673    16

AllMySatでSTARLINK-5013をリアルタイム追跡

Download on the App Store